Wind_Speed
61 60 59 58 54 53 53 53 50 47 42 42 41 40 39 41 41 39 40 41 41 40 42 39 41 41 42 44 48 55 58 57 51 51 49 48 53 53 55 52 52 51 56 59 55
63 61 59 57 56 54 53 52 50 48 45 41 42 42 38 40 41 40 40 39 41 43 42 41 42 44 44 45 47 53 54 57 54 53 53 53 57 56 59 60 55 55 61 62 60
66 64 61 57 57 54 52 52 52 47 45 41 41 43 40 40 42 40 40 40 42 42 44 43 43 44 48 51 53 53 53 55 54 59 59 59 60 59 62 61 62 58 60 63 62
68 68 65 63 60 56 53 53 48 44 40 40 40 41 41 40 40 39 40 40 41 43 46 50 46 45 43 48 52 52 53 56 54 57 60 62 66 62 65 63 64 66 65 66 61
56 58 57 58 59 55 52 48 42 40 38 36 38 39 40 38 37 38 39 40 41 42 45 47 48 43 44 47 49 50 49 48 51 55 57 62 66 67 67 67 66 70 69 66 66
47 44 45 48 51 48 44 40 37 36 35 34 36 37 34 34 35 35 35 34 33 37 44 43 39 40 41 43 45 48 51 50 54 58 62 63 66 69 63 68 68 70 71 63 64
43 37 35 40 43 42 39 36 33 34 33 33 32 31 30 31 31 33 29 32 31 33 34 30 30 35 36 37 38 42 42 46 49 56 58 69 66 68 67 70 69 68 68 66 62
27 34 30 35 39 40 38 36 32 28 29 26 27 27 26 27 27 28 27 27 23 21 21 24 28 29 28 29 29 28 33 35 33 43 45 58 56 61 69 72 71 69 70 67 62
20 27 27 32 34 34 30 21 21 24 23 23 22 21 19 21 24 18 15 16 20 22 22 26 28 33 31 31 30 35 36 34 31 35 39 47 55 53 58 66 69 68 69 70 65
10 20 24 28 26 27 20 20 21 22 20 17 12 14 15 16 13 8 13 19 20 22 26 29 30 30 28 30 32 29 31 32 32 28 36 37 45 42 49 56 63 66 64 65 64
9 11 21 24 26 23 22 22 22 19 13 8 9 10 13 7 3 10 15 17 16 21 26 28 27 25 24 26 19 14 5 2 13 18 22 20 23 27 32 38 35 47 58 53 51
8 17 14 19 22 22 22 20 17 12 9 8 9 10 8 5 4 11 11 13 17 24 24 18 12 7 4 1 3 10 11 6 6 7 11 9 8 8 11 11 13 21 28 36 41
13 27 27 18 17 20 19 24 15 13 10 8 10 8 6 2 7 9 11 11 15 10 5 4 11 14 14 11 8 7 7 11 15 16 14 17 20 22 20 12 8 16 19 26 29
12 34 30 28 23 24 24 16 16 14 16 12 11 9 5 1 6 7 15 19 16 15 19 22 21 19 18 20 19 20 18 14 14 18 22 26 27 13 9 11 11 8 15 19 23
19 35 41 40 34 30 23 23 19 17 19 15 11 10 7 9 18 18 19 19 18 19 21 20 17 19 20 19 19 21 18 16 15 16 16 19 14 9 6 5 8 15 17 16 21
43 45 43 40 30 23 20 20 19 21 17 16 14 11 9 13 15 13 10 17 18 18 19 17 13 14 14 13 18 18 20 21 22 8 15 7 5 5 1 4 12 14 17 18 24
46 44 38 29 24 23 23 28 24 22 21 15 13 12 10 15 13 11 5 5 12 12 11 8 9 12 14 19 15 24 22 11 21 23 16 8 5 4 6 12 17 21 20 21 34
39 34 32 25 23 33 30 27 23 19 19 18 15 13 11 14 15 9 4 4 8 10 12 10 10 13 12 15 15 20 14 6 13 6 6 11 10 14 14 22 27 31 23 25 26
32 30 24 20 31 31 29 23 24 22 20 20 18 14 16 16 16 11 6 6 9 12 13 12 12 13 13 13 14 15 15 11 14 20 19 19 14 15 28 30 31 20 37 23 23
34 23 27 32 33 29 27 24 24 21 20 18 21 21 20 14 10 7 8 11 12 14 16 16 18 18 19 22 19 18 18 20 18 25 28 19 21 18 13 29 30 22 25 24 14
37 32 31 30 26 26 21 20 20 21 19 17 20 23 21 19 14 10 7 7 9 20 27 32 32 30 27 28 29 31 34 36 36 30 32 32 25 21 33 32 26 22 24 12 10
41 30 27 25 21 19 17 16 17 16 18 15 15 16 18 20 17 14 11 11 16 24 23 19 23 23 22 24 25 25 25 24 29 34 30 38 40 31 21 23 25 13 11 22 22
41 35 26 22 19 18 14 14 15 15 15 14 13 16 19 19 18 16 15 17 21 23 18 16 15 13 16 16 19 19 21 19 17 18 15 18 32 37 35 29 27 24 19 14 16
41 38 34 30 26 21 20 18 16 16 17 16 16 21 21 22 18 18 16 17 22 18 16 15 13 13 14 15 17 17 18 17 16 14 19 19 19 21 21 20 16 13 11 9 8
37 38 37 35 33 30 29 29 27 25 26 26 26 24 25 24 20 18 18 22 23 18 12 9 10 12 14 16 18 17 17 15 16 21 21 22 24 22 19 17 15 14 13 11 8
34 33 33 33 32 31 31 32 33 33 32 33 34 35 33 31 26 21 22 22 18 13 12 12 13 14 15 17 19 19 21 23 25 25 25 27 25 24 23 21 19 17 14 9 9
26 29 29 29 28 28 27 28 29 29 30 30 31 32 31 31 31 30 27 27 25 24 23 23 22 21 22 23 22 23 23 23 22 22 20 19 17 15 12 12 11 9 6 7 9
Wind_Direction
262 262 263 264 263 263 264 265 265 263 263 268 272 274 272 273 272 273 273 274 270 267 271 273 275 273 267 264 261 257 256 256 256 255 253 249 247 248 249 246 247 248 251 253 255
260 260 260 260 260 260 262 264 264 264 263 264 270 274 274 271 273 274 273 272 269 269 270 270 274 271 267 264 271 264 259 255 254 254 252 248 247 248 247 247 244 246 252 253 254
259 259 259 258 258 259 260 261 262 263 260 264 271 276 273 273 272 275 273 270 267 267 266 270 273 274 268 267 273 270 261 256 255 253 251 249 249 247 248 248 249 248 250 252 252
259 261 260 259 258 256 256 257 260 260 259 264 269 274 275 273 272 272 271 272 268 266 269 272 275 279 273 274 272 270 264 257 255 256 255 253 253 247 250 250 251 251 252 252 254
259 255 256 259 258 256 254 254 251 254 257 262 267 272 272 271 270 272 273 278 274 277 280 282 281 278 275 273 268 264 260 258 256 258 255 253 253 252 250 251 251 252 253 254 254
263 256 254 254 252 250 248 242 243 249 255 261 267 269 271 270 271 273 279 284 284 286 291 280 281 281 274 271 266 262 257 252 252 251 249 247 245 247 246 247 248 250 252 251 250
264 254 250 247 244 240 233 229 231 241 250 257 262 266 267 270 272 279 287 290 295 288 282 289 295 290 280 269 263 259 257 253 252 250 248 247 242 247 247 243 241 242 248 249 248
251 250 244 240 234 232 229 225 230 235 244 250 255 260 267 272 283 292 289 292 276 276 287 294 291 285 281 284 289 286 272 261 263 258 251 251 246 243 243 241 240 241 243 245 244
239 229 231 234 225 225 223 214 219 231 236 242 251 258 270 280 291 281 282 281 281 284 288 294 290 282 287 296 294 288 288 284 280 281 268 263 248 242 241 241 240 238 240 243 244
231 214 204 216 210 213 196 202 211 218 225 233 245 263 277 282 270 280 295 284 279 287 291 291 286 283 290 291 292 290 286 280 281 264 265 265 263 254 249 245 240 238 236 239 241
245 210 173 184 171 173 187 192 192 214 214 220 242 253 275 243 251 314 303 300 289 283 292 290 286 290 289 294 293 304 16 51 267 275 277 278 264 246 242 246 236 235 234 233 235
152 174 162 154 166 164 177 180 185 187 174 185 229 233 186 184 319 323 331 321 297 295 299 303 303 300 287 231 102 112 86 74 122 70 78 80 131 174 127 131 173 209 213 219 223
104 142 136 168 167 155 154 157 167 155 161 155 146 161 148 196 310 335 338 331 335 336 352 105 120 126 113 115 88 53 60 84 96 86 67 66 79 76 65 96 168 191 200 206 212
97 138 122 137 155 136 145 147 140 145 164 148 133 125 139 232 49 57 47 52 54 64 92 114 118 109 97 103 102 95 84 90 97 88 86 94 110 114 71 103 124 154 182 186 203
130 132 120 119 127 123 133 126 129 140 135 134 130 127 111 101 109 98 76 62 70 77 86 91 103 105 96 84 93 82 57 79 86 91 99 87 94 128 145 154 159 164 174 181 184
116 119 115 115 118 117 128 140 152 135 125 123 115 104 97 103 122 135 108 77 60 69 88 76 76 90 79 63 11 360 5 3 360 322 348 75 162 357 260 52 137 151 158 167 178
111 107 105 109 116 127 130 123 121 122 112 111 107 94 88 117 130 141 105 71 47 41 34 46 42 17 14 11 2 3 355 40 52 54 40 53 64 181 159 131 115 132 142 154 167
95 97 103 111 107 116 112 112 115 108 106 103 84 81 109 123 142 127 108 36 52 43 60 63 45 37 30 62 58 87 77 64 76 62 104 113 112 114 122 115 126 139 139 143 142
79 93 98 97 105 108 107 102 97 93 84 78 77 84 98 99 110 116 92 82 90 85 76 65 61 67 81 83 90 96 107 95 73 100 107 98 94 111 116 114 119 128 136 170 149
64 87 90 100 105 105 104 91 82 80 82 77 75 82 88 99 94 109 99 86 88 88 78 82 85 90 89 99 99 94 102 103 105 98 95 113 112 110 113 118 123 123 128 165 139
75 84 108 109 106 103 94 74 68 69 79 84 73 70 77 85 95 87 95 93 101 97 104 101 103 103 103 101 97 89 97 95 90 107 91 92 102 110 121 121 130 147 160 160 73
67 85 95 93 85 94 71 57 49 59 63 71 75 71 71 77 83 88 89 108 127 112 118 108 106 106 100 96 93 91 92 91 86 94 107 82 87 111 123 123 126 129 74 93 104
64 69 76 88 70 64 55 43 38 37 45 62 65 68 78 84 85 95 95 117 126 129 121 104 102 100 101 94 96 89 88 83 81 85 78 81 105 113 115 110 113 114 107 111 130
64 66 69 70 75 69 65 60 59 66 69 77 76 79 86 86 83 92 101 120 121 120 117 109 102 96 88 86 83 83 81 68 65 66 78 99 92 102 111 117 120 116 115 105 101
63 66 68 67 68 70 68 69 69 72 76 82 88 93 97 94 96 101 120 123 124 130 131 116 88 67 55 54 50 58 68 69 78 77 80 82 85 88 95 103 103 94 88 87 88
61 63 67 69 69 68 69 69 67 66 65 69 74 81 89 98 106 106 115 122 119 105 83 78 74 70 67 67 74 70 73 75 76 75 73 67 66 62 61 64 65 62 59 50 51
55 60 63 64 67 68 67 68 70 70 67 67 68 70 71 77 85 89 93 89 87 87 85 85 81 78 75 71 66 65 61 60 61 60 56 56 55 56 58 61 63 58 26 353 357
Height
5673 5676 5678 5681 5683 5686 5689 5694 5695 5697 5701 5702 5704 5703 5704 5704 5706 5707 5707 5709 5707 5709 5710 5710 5710 5711 5711 5711 5710 5710 5713 5720 5726 5729 5736 5739 5736 5741 5741 5749 5750 5752 5754 5757 5765
5654 5658 5662 5666 5669 5672 5677 5679 5684 5687 5689 5692 5694 5694 5694 5696 5698 5697 5699 5699 5699 5699 5701 5700 5701 5702 5701 5699 5700 5698 5703 5707 5712 5715 5719 5723 5720 5726 5730 5732 5738 5742 5745 5748 5751
5636 5640 5645 5649 5654 5658 5663 5667 5671 5677 5680 5681 5684 5684 5685 5686 5690 5688 5689 5689 5689 5690 5692 5691 5691 5691 5691 5689 5687 5685 5691 5693 5699 5700 5703 5707 5707 5716 5715 5722 5724 5728 5735 5739 5744
5618 5623 5629 5634 5639 5643 5649 5655 5661 5666 5670 5671 5672 5675 5677 5679 5682 5680 5679 5680 5680 5680 5682 5681 5680 5679 5678 5677 5673 5675 5676 5679 5686 5687 5689 5691 5692 5702 5702 5711 5712 5713 5720 5726 5736
5597 5605 5612 5619 5625 5629 5637 5644 5650 5655 5660 5662 5663 5666 5669 5672 5672 5671 5671 5672 5671 5671 5671 5670 5669 5668 5665 5662 5662 5661 5664 5667 5671 5671 5672 5675 5678 5684 5694 5696 5699 5699 5705 5716 5723
5578 5588 5596 5604 5611 5618 5626 5632 5639 5646 5651 5653 5655 5658 5662 5666 5664 5664 5662 5665 5662 5662 5660 5659 5656 5656 5653 5650 5650 5647 5648 5652 5653 5654 5654 5657 5659 5660 5682 5680 5685 5686 5693 5703 5711
5565 5576 5584 5591 5600 5608 5615 5622 5631 5638 5642 5645 5648 5651 5655 5658 5658 5657 5657 5656 5653 5652 5651 5649 5647 5646 5643 5640 5639 5635 5636 5636 5636 5635 5641 5630 5644 5650 5662 5658 5665 5671 5679 5690 5698
5555 5567 5574 5583 5590 5599 5607 5614 5623 5630 5635 5639 5643 5647 5650 5651 5652 5651 5650 5648 5647 5646 5646 5644 5642 5639 5637 5632 5630 5627 5626 5626 5624 5623 5624 5613 5639 5637 5638 5638 5648 5655 5663 5672 5684
5547 5555 5565 5575 5582 5592 5602 5609 5617 5625 5630 5634 5640 5643 5645 5646 5648 5646 5644 5643 5643 5641 5640 5638 5635 5631 5628 5623 5621 5617 5615 5612 5612 5607 5605 5599 5615 5620 5617 5618 5628 5636 5647 5655 5668
5543 5548 5556 5568 5577 5589 5598 5608 5616 5621 5627 5631 5636 5641 5642 5643 5643 5641 5640 5639 5638 5635 5633 5631 5628 5623 5622 5618 5613 5607 5602 5602 5601 5600 5593 5592 5595 5598 5599 5600 5610 5617 5631 5644 5654
5542 5548 5555 5564 5574 5586 5597 5607 5613 5620 5625 5630 5634 5637 5638 5639 5639 5639 5637 5635 5632 5630 5627 5623 5621 5619 5614 5609 5605 5600 5598 5595 5593 5592 5587 5584 5581 5584 5584 5590 5598 5605 5618 5631 5643
5539 5547 5557 5564 5576 5585 5596 5604 5612 5620 5626 5628 5631 5633 5635 5636 5637 5637 5635 5631 5627 5623 5619 5617 5615 5612 5607 5605 5603 5600 5598 5595 5592 5588 5584 5578 5575 5579 5587 5589 5595 5605 5613 5624 5634
5542 5549 5559 5567 5576 5588 5595 5606 5613 5619 5625 5628 5630 5632 5634 5636 5636 5635 5631 5628 5624 5619 5615 5613 5612 5609 5607 5607 5605 5604 5600 5597 5594 5591 5588 5584 5583 5588 5591 5594 5600 5605 5613 5622 5631
5549 5554 5562 5571 5582 5591 5600 5607 5615 5620 5623 5627 5630 5632 5635 5636 5636 5634 5632 5629 5624 5619 5616 5615 5614 5613 5611 5609 5606 5603 5602 5599 5597 5594 5592 5590 5589 5594 5596 5598 5603 5607 5616 5624 5632
5554 5563 5571 5580 5587 5596 5605 5610 5616 5619 5624 5628 5631 5633 5634 5636 5637 5637 5636 5632 5630 5627 5624 5622 5618 5616 5615 5613 5610 5608 5605 5603 5601 5597 5596 5597 5597 5600 5600 5602 5603 5609 5617 5625 5632
5566 5575 5582 5589 5597 5604 5608 5612 5617 5623 5624 5629 5632 5633 5635 5636 5636 5637 5637 5637 5635 5632 5629 5626 5622 5619 5617 5615 5612 5609 5609 5604 5601 5601 5600 5601 5600 5602 5602 5604 5607 5612 5617 5626 5633
5581 5588 5594 5600 5605 5608 5611 5616 5622 5626 5629 5632 5633 5634 5636 5636 5637 5638 5638 5638 5636 5634 5631 5627 5625 5622 5619 5618 5616 5612 5609 5610 5609 5605 5606 5604 5604 5603 5605 5608 5611 5615 5621 5628 5639
5599 5603 5605 5609 5612 5615 5619 5624 5628 5630 5632 5634 5635 5636 5637 5637 5639 5640 5640 5639 5638 5635 5633 5630 5628 5625 5621 5620 5620 5618 5617 5614 5613 5614 5612 5609 5609 5610 5611 5613 5615 5618 5626 5630 5640
5613 5616 5617 5619 5622 5625 5629 5632 5633 5634 5636 5636 5637 5639 5639 5639 5641 5641 5641 5641 5640 5638 5637 5633 5631 5628 5625 5623 5622 5621 5622 5620 5619 5617 5616 5614 5615 5614 5614 5619 5622 5623 5634 5641 5647
5623 5625 5628 5630 5632 5635 5637 5638 5638 5639 5639 5641 5642 5642 5642 5643 5643 5642 5643 5643 5643 5642 5640 5637 5636 5632 5630 5629 5628 5626 5626 5625 5624 5622 5621 5621 5620 5619 5622 5626 5630 5633 5642 5651 5654
5632 5634 5637 5639 5642 5643 5645 5644 5644 5643 5644 5646 5646 5646 5646 5647 5646 5645 5645 5646 5645 5645 5644 5642 5641 5640 5637 5636 5635 5634 5633 5631 5627 5626 5628 5626 5626 5626 5626 5637 5641 5644 5649 5654 5655
5641 5645 5646 5649 5652 5651 5652 5651 5650 5649 5649 5650 5650 5651 5650 5650 5649 5649 5648 5649 5649 5650 5648 5647 5647 5645 5644 5641 5641 5641 5640 5639 5639 5637 5636 5632 5635 5635 5639 5643 5647 5650 5652 5655 5657
5654 5656 5656 5657 5658 5659 5659 5658 5657 5655 5654 5653 5655 5654 5654 5654 5654 5653 5653 5653 5652 5652 5654 5652 5651 5650 5650 5650 5647 5647 5646 5646 5645 5646 5643 5645 5643 5641 5644 5647 5651 5653 5655 5658 5659
5670 5668 5666 5665 5664 5665 5664 5664 5663 5662 5660 5659 5659 5658 5659 5659 5658 5658 5658 5658 5658 5658 5657 5656 5655 5654 5654 5652 5653 5654 5653 5652 5651 5651 5651 5651 5652 5652 5653 5656 5658 5660 5663 5664 5667
5682 5680 5678 5675 5674 5672 5671 5669 5668 5668 5666 5665 5665 5664 5666 5665 5664 5664 5664 5664 5664 5662 5661 5660 5660 5660 5659 5658 5658 5658 5658 5657 5656 5655 5655 5656 5655 5657 5659 5660 5661 5662 5664 5665 5667
5692 5689 5686 5685 5684 5682 5681 5678 5676 5674 5673 5672 5671 5672 5672 5672 5672 5671 5670 5669 5669 5669 5667 5667 5666 5665 5664 5663 5662 5662 5661 5661 5661 5660 5660 5660 5660 5660 5661 5663 5664 5665 5667 5669 5666
5703 5699 5696 5694 5692 5691 5690 5688 5686 5684 5682 5680 5679 5679 5680 5680 5679 5678 5677 5676 5675 5674 5672 5670 5670 5669 5668 5667 5666 5666 5666 5666 5666 5666 5666 5665 5666 5666 5666 5668 5668 5668 5668 5668 5665